Temperature
23 22 21 22 28 31 31 31 31 30 30 29 28 29 29 29 28 26 22 21 21 21 20 20 20 20 20 19 19 19 19 19 19 19 19 19 19 19 18 18 18 18 18 18 18 18 18 18 18
22 21 22 26 31 30 30 31 30 30 29 28 28 28 28 27 25 23 22 21 21 20 20 19 20 19 19 19 19 19 19 19 19 19 19 19 19 18 18 18 18 18 18 18 18 18 18 18 18
22 22 25 30 31 31 30 30 30 29 28 28 28 28 27 26 24 23 22 21 21 20 20 20 20 20 19 19 19 19 19 19 19 19 18 18 18 18 18 18 18 18 18 18 18 18 18 18 18
22 24 28 30 30 30 30 30 30 30 29 28 28 28 26 24 23 22 21 21 21 20 20 20 20 20 19 19 19 19 19 19 18 18 18 18 18 18 18 18 18 18 18 18 18 18 18 18 18
23 28 30 30 30 30 30 30 29 30 30 29 28 28 26 23 22 22 21 21 21 20 20 19 20 20 19 19 19 19 19 19 18 18 18 18 18 18 18 18 18 18 18 18 18 18 18 18 18
27 29 30 30 30 30 30 29 29 30 30 28 28 28 25 22 22 21 21 21 21 20 20 20 20 19 19 19 19 19 19 19 18 18 18 18 18 18 18 18 18 18 18 18 18 18 18 18 18
28 30 30 30 30 30 30 29 30 30 30 29 28 28 25 22 21 21 21 21 20 20 20 19 19 19 19 19 19 19 19 18 18 18 18 18 18 18 18 18 18 18 18 18 18 18 18 18 18
27 30 30 30 30 30 30 29 29 29 29 27 27 28 26 22 21 21 21 20 20 20 19 19 19 19 19 19 19 19 19 19 18 18 18 18 18 18 18 18 18 18 18 18 18 18 18 17 18
26 29 30 30 30 30 29 29 28 28 28 27 26 26 24 22 21 21 21 20 20 20 19 19 19 19 19 18 18 18 18 18 18 18 18 18 17 17 17 17 18 18 18 18 18 17 17 17 17
28 29 30 30 30 30 29 29 28 28 28 27 26 24 22 22 21 21 21 21 20 20 19 19 19 19 19 18 18 18 18 18 18 18 17 17 17 17 17 17 18 18 17 17 17 17 17 17 17
28 29 30 29 29 28 29 28 28 29 29 28 27 24 22 22 22 22 21 21 21 20 19 19 19 19 19 19 18 18 18 18 18 17 17 17 17 17 17 17 17 17 17 17 17 17 17 17 17
28 29 28 29 28 28 28 28 28 28 28 27 26 24 23 22 22 22 22 21 20 20 19 19 19 19 19 18 18 18 18 18 18 17 17 17 17 17 17 17 17 17 17 17 17 17 17 17 17
28 28 28 27 27 27 27 28 28 27 26 26 25 24 23 23 22 22 21 21 20 20 19 19 19 19 19 18 18 18 18 18 18 17 17 17 17 17 17 17 17 17 17 17 17 17 17 17 17
28 28 28 27 27 27 28 28 28 27 26 25 24 24 23 23 23 22 21 21 20 20 19 19 19 19 19 18 18 18 18 18 18 17 17 17 17 17 17 17 17 17 17 17 17 17 17 17 17
27 27 28 28 28 28 28 28 28 27 26 25 25 24 23 23 22 22 21 21 20 19 19 19 19 18 18 18 18 18 18 18 17 17 17 17 17 17 17 17 17 17 17 17 17 17 17 17 17
27 27 28 29 28 28 28 28 29 26 26 25 25 24 23 22 22 21 21 20 20 20 19 19 19 18 18 18 18 18 18 17 17 17 17 17 17 17 17 17 17 17 17 17 17 17 17 17 17
27 27 28 28 28 28 28 28 28 26 26 26 25 24 23 22 22 21 21 20 20 20 19 19 19 19 18 18 18 18 18 17 17 17 17 17 17 17 17 17 17 17 17 17 17 17 17 16 16
27 28 28 28 28 28 28 28 28 27 26 26 25 24 23 23 22 21 21 20 20 20 19 19 19 18 18 18 18 17 17 17 17 17 17 17 17 17 17 16 16 16 16 16 16 16 16 16 16
27 27 27 28 28 28 28 28 28 27 26 26 25 24 24 23 22 21 21 20 20 19 19 19 18 18 18 18 18 17 17 17 17 17 17 17 17 16 16 16 16 16 16 16 16 16 16 16 16
26 26 27 27 27 27 27 27 28 27 27 26 25 24 24 23 22 21 20 20 20 19 19 19 19 18 18 18 18 17 17 17 17 17 17 17 17 16 16 16 16 16 16 16 16 16 16 16 16
26 26 27 27 27 27 26 27 27 27 26 25 25 24 24 23 22 21 20 20 19 19 19 19 19 19 18 18 17 17 17 17 17 17 17 17 17 16 16 16 16 16 16 16 16 16 15 16 16
26 27 27 26 26 27 27 27 27 27 26 26 25 24 24 23 22 21 20 19 19 19 19 19 19 18 18 18 17 17 17 17 17 17 17 16 16 16 16 16 16 16 15 15 15 15 15 15 15
26 27 26 26 26 26 27 26 28 27 26 26 25 24 23 23 22 21 20 20 19 19 18 18 18 18 18 18 17 17 17 17 17 16 16 16 16 16 16 16 16 16 15 15 15 15 15 15 15
26 26 26 26 27 25 26 26 27 27 27 26 26 24 23 22 21 21 20 19 19 18 18 18 18 18 18 18 17 17 17 17 17 16 16 16 16 16 16 15 15 15 15 15 15 15 15 15 15
25 25 25 25 25 26 26 26 26 26 26 26 25 24 23 22 21 21 20 19 19 18 18 18 17 18 18 17 17 17 17 17 17 16 16 16 16 16 16 15 15 15 15 15 15 15 15 15 15
25 26 25 25 25 26 26 26 26 26 25 24 24 23 22 22 21 20 20 19 18 18 17 17 17 17 17 17 17 17 16 16 16 16 16 16 16 16 16 16 15 15 15 15 15 15 14 14 14
25 26 26 26 26 25 26 26 26 25 25 24 24 23 22 21 21 20 19 19 18 17 17 17 16 16 16 17 16 16 16 16 16 16 16 16 16 15 15 15 15 15 15 15 15 14 14 14 14
26 26 25 25 24 24 25 25 26 25 24 24 23 22 21 20 20 19 19 18 18 17 17 16 16 16 16 16 16 16 16 16 16 15 15 15 15 15 15 15 15 15 15 14 14 14 14 14 14
24 24 25 25 25 24 24 25 25 24 24 23 23 21 21 20 19 19 18 18 17 17 16 16 16 16 16 16 16 15 15 15 15 15 15 15 15 15 15 15 15 14 14 14 14 14 14 14 14
25 24 24 24 24 24 24 25 24 23 23 22 22 20 19 19 19 18 17 17 17 16 16 16 16 16 16 15 15 15 15 15 15 15 15 15 15 15 15 15 14 14 14 14 14 14 14 14 14
Wind_Speed
8 7 5 5 5 2 4 6 5 5 5 5 4 3 4 6 6 6 6 9 10 11 12 13 11 9 9 9 10 10 11 11 11 10 10 10 10 10 10 10 10 10 10 10 11 11 11 11 11
5 4 5 5 4 3 5 5 6 6 5 4 4 3 4 6 6 7 8 10 11 11 12 11 11 9 9 10 9 11 11 11 10 10 10 9 9 9 9 10 9 9 9 10 10 10 10 10 10
5 6 5 4 1 1 5 6 6 6 4 3 3 4 4 5 6 6 9 12 11 11 11 13 11 10 9 9 10 10 10 10 10 10 9 9 8 8 9 9 9 9 9 9 9 9 9 10 10
5 5 5 4 3 4 4 5 4 5 5 3 3 5 5 5 4 7 11 12 11 11 11 14 11 10 9 9 9 10 10 10 9 9 9 8 8 8 8 8 8 8 8 8 8 8 7 8 8
6 5 6 5 3 3 3 3 2 3 3 3 3 5 6 6 7 10 12 11 11 10 10 13 11 10 9 9 9 9 10 9 9 9 8 8 8 8 7 7 7 7 7 7 7 7 7 6 7
5 5 6 5 5 4 3 3 2 2 4 4 3 5 6 7 8 10 11 10 10 10 10 13 12 10 9 9 9 9 9 9 9 8 8 8 7 8 8 7 7 7 6 7 7 7 7 7 7
6 5 5 4 4 4 3 2 1 1 3 3 2 4 6 7 8 10 10 10 9 9 9 10 11 11 10 9 9 9 9 8 8 8 8 8 7 7 8 7 6 6 6 6 7 7 7 7 7
6 5 7 6 5 4 4 2 1 0 2 3 2 2 5 9 10 10 10 9 9 8 8 8 9 9 9 10 10 9 8 8 8 7 7 7 8 8 8 8 7 6 6 7 7 6 6 7 6
6 7 7 6 4 3 3 2 1 1 2 3 2 3 6 13 13 11 10 9 8 7 7 7 7 7 8 8 9 9 8 8 8 8 7 6 7 8 8 7 7 6 6 6 6 5 6 6 7
7 8 6 2 1 1 1 2 1 3 4 4 4 6 11 14 13 12 11 10 9 9 8 7 7 7 7 7 7 7 7 7 6 6 6 5 4 5 6 9 7 6 6 6 6 5 6 6 5
8 8 5 3 3 2 3 3 3 5 4 3 4 8 12 13 12 11 10 10 9 9 8 7 6 6 6 5 6 5 5 6 6 5 5 4 4 5 5 6 7 6 6 5 6 5 3 3 2
8 8 6 5 3 4 5 4 4 5 4 2 3 8 12 13 12 11 10 9 9 9 8 7 7 6 6 5 5 5 4 4 4 5 5 5 3 3 4 3 4 4 4 3 2 2 3 2 2
11 8 7 7 6 6 6 6 6 6 4 2 5 9 11 12 11 10 9 8 8 8 8 8 7 7 6 5 4 4 4 4 5 5 4 4 3 3 3 3 2 3 3 3 2 2 3 2 3
7 8 8 7 8 7 8 8 7 6 4 5 7 9 10 10 10 10 9 9 8 8 8 8 8 7 6 5 4 4 4 4 4 4 5 4 4 3 3 3 2 2 2 2 2 3 3 2 2
6 9 10 10 9 7 7 9 9 6 5 6 7 8 9 9 9 9 9 9 9 9 8 8 8 7 7 6 5 4 4 4 4 4 5 5 4 4 3 2 2 2 3 3 2 3 2 3 3
10 12 12 9 8 8 9 10 6 6 7 7 7 8 8 8 9 8 8 8 9 9 9 9 8 8 7 6 5 4 4 5 4 4 5 5 5 5 4 3 2 2 3 3 2 2 2 2 2
12 13 12 8 8 8 10 9 5 5 7 8 8 9 9 9 9 8 9 9 9 9 9 10 8 8 7 6 5 5 4 4 4 4 5 5 6 6 4 3 2 3 3 2 2 2 2 2 2
11 12 11 10 7 9 11 10 6 6 7 8 8 8 9 9 9 8 9 9 9 9 9 9 9 8 7 6 5 4 4 4 4 4 4 5 6 6 5 4 3 3 3 3 2 2 2 1 1
8 10 10 8 5 8 11 11 9 7 7 7 8 9 9 9 8 8 8 9 9 9 10 10 9 8 7 6 6 5 5 5 4 4 5 6 5 6 4 3 3 3 3 3 3 3 4 3 2
10 11 11 7 5 7 9 11 9 8 9 8 8 9 9 9 8 8 8 8 10 10 10 10 9 9 9 7 6 5 5 4 4 3 4 5 5 5 5 4 4 4 3 3 4 3 3 3 2
12 12 10 8 6 8 8 12 11 9 8 7 7 8 8 8 9 8 9 9 9 10 10 9 9 9 9 8 6 5 5 4 5 5 4 5 5 5 5 5 4 3 4 4 4 4 4 3 3
12 10 9 9 10 9 9 10 10 8 8 7 8 8 8 8 8 8 8 9 9 9 9 9 9 9 9 9 8 8 7 6 6 5 4 4 5 5 5 5 5 4 4 3 4 4 4 4 3
9 6 9 10 11 11 10 11 8 8 8 7 7 7 7 7 7 8 8 8 8 8 8 9 9 9 9 9 9 9 7 6 5 5 5 4 4 5 5 5 5 5 4 4 4 3 4 4 4
7 7 9 10 11 14 12 11 8 7 7 6 6 6 6 6 6 6 6 7 7 7 8 8 9 9 9 9 8 8 8 7 6 6 6 5 4 5 5 5 5 5 5 5 5 4 5 4 4
11 10 9 10 11 11 7 9 6 2 4 5 5 5 5 6 6 7 7 7 7 7 7 7 8 8 9 9 8 8 8 8 8 7 6 6 5 5 5 5 5 5 5 5 5 5 4 4 4
13 13 10 9 10 7 8 9 4 2 2 2 3 3 4 5 6 6 7 7 7 7 7 7 8 8 9 9 8 8 8 7 7 7 6 6 5 5 5 5 5 5 5 5 5 4 5 4 4
11 13 11 10 10 10 8 6 5 4 4 3 3 2 2 4 5 6 6 6 6 6 6 7 7 7 8 8 8 8 8 7 7 6 6 5 4 4 5 5 5 5 5 5 5 4 5 4 5
9 9 8 10 10 11 10 10 6 6 4 3 2 2 2 3 4 5 5 5 5 5 5 5 6 6 6 7 7 7 7 7 7 6 5 5 4 4 4 5 5 5 5 5 5 5 5 5 5
9 10 10 10 10 10 9 5 1 3 3 3 2 1 2 3 4 5 5 5 5 5 5 5 6 6 6 6 6 6 6 7 7 6 5 5 5 5 5 5 5 5 5 5 5 5 5 6 5
9 10 11 10 10 10 10 4 4 2 1 2 2 2 3 4 4 5 5 5 5 5 4 4 5 5 5 6 6 6 6 6 6 6 6 5 5 5 5 5 5 5 6 6 6 6 6 6 6
Wind_Direction
201 205 227 240 237 185 87 79 73 82 75 61 56 43 42 35 25 68 105 127 130 134 135 140 136 138 139 139 138 136 135 136 135 130 126 122 121 122 119 115 113 116 122 123 121 124 124 122 122
202 217 236 242 252 152 99 82 81 68 80 90 88 78 72 67 59 98 123 129 138 136 139 139 135 139 138 138 138 138 136 137 135 131 128 125 121 120 121 119 116 115 119 122 123 123 126 126 124
210 237 258 247 244 94 96 88 84 89 104 106 94 66 57 69 91 112 124 140 141 138 136 131 139 139 137 136 137 138 137 136 134 132 130 128 125 121 120 121 121 120 117 116 119 124 127 126 124
228 230 237 239 151 84 81 94 99 113 113 104 108 98 87 67 92 119 133 144 142 139 137 134 143 139 137 135 137 138 138 137 136 136 133 131 129 126 123 121 120 121 119 118 117 119 124 130 127
243 251 226 199 154 110 103 106 136 130 119 120 116 105 103 90 99 125 140 145 142 139 136 135 141 138 136 136 137 137 140 140 138 138 139 137 133 131 128 125 123 123 124 124 122 119 122 133 131
239 243 230 195 153 136 128 141 165 136 117 127 129 118 103 110 123 135 141 145 140 138 135 132 140 141 139 139 136 135 138 141 140 139 139 139 138 137 136 132 127 126 128 130 131 127 122 121 127
259 249 236 210 166 149 117 136 174 149 130 128 135 124 120 131 134 141 142 143 139 140 138 141 148 150 148 144 140 139 139 138 140 140 142 142 143 140 139 138 131 126 127 131 134 133 130 129 132
267 251 224 209 195 154 120 136 79 4 96 102 156 142 137 145 145 144 143 143 141 143 145 149 152 152 156 150 143 143 142 141 143 145 147 150 152 152 152 151 133 133 135 137 135 138 142 140 139
247 241 222 206 201 155 138 173 110 87 132 132 127 66 114 140 147 149 149 149 149 152 154 159 156 157 158 150 145 152 150 147 154 153 151 170 167 161 162 133 133 138 139 138 139 146 151 161 158
231 235 226 214 230 177 176 232 229 204 186 171 141 111 128 146 155 160 161 161 162 163 165 165 164 162 161 152 152 161 161 156 166 156 158 162 151 155 146 137 142 140 144 149 145 151 173 194 161
229 239 233 221 247 273 249 243 240 238 226 214 182 155 153 159 165 170 171 170 169 165 165 166 165 165 162 159 157 160 160 160 165 155 157 151 158 158 156 155 158 160 170 159 151 170 158 140 132
231 238 249 247 249 256 257 258 251 255 268 295 181 159 164 170 175 178 177 173 170 166 170 166 166 166 168 162 159 162 161 159 155 153 161 154 149 149 148 159 150 159 151 143 151 138 120 118 134
230 233 236 247 249 255 255 251 258 259 260 219 162 164 174 180 180 178 176 174 172 173 175 171 171 166 167 165 172 164 163 161 150 157 155 157 155 154 149 141 141 144 137 147 149 134 129 135 135
228 234 239 242 240 238 239 247 244 244 212 177 170 174 180 182 182 178 178 178 179 178 177 171 174 169 170 172 174 167 161 153 155 155 150 157 150 142 147 150 148 139 138 121 133 131 145 144 129
226 233 236 231 227 224 231 239 228 216 189 186 180 177 179 182 184 185 184 183 182 179 175 173 175 173 177 177 177 170 165 159 158 154 156 161 156 149 160 149 158 145 137 138 141 131 149 161 156
221 229 232 212 213 214 228 238 200 187 194 197 189 181 181 184 187 184 186 187 184 179 174 177 178 176 178 180 182 172 168 167 165 158 157 165 159 158 167 162 162 147 157 153 147 158 159 158 168
217 226 226 208 204 212 226 242 200 197 206 204 197 189 185 184 189 189 189 187 185 180 176 178 181 177 177 179 180 175 169 176 174 166 166 165 168 168 174 171 152 170 168 162 172 145 154 161 172
218 225 225 224 202 219 230 238 226 208 208 207 202 195 191 192 193 192 192 188 184 180 180 179 180 176 174 176 179 181 176 181 185 178 173 173 176 178 183 178 176 191 172 163 155 138 143 171 193
244 236 230 227 219 234 237 242 239 218 214 212 209 203 201 200 195 190 189 189 183 180 183 183 182 176 176 178 185 187 188 187 185 183 179 179 180 176 191 189 176 200 184 181 176 171 164 178 181
231 233 232 221 214 246 243 246 238 224 222 223 221 212 208 204 196 193 193 191 187 183 185 184 185 183 186 183 188 192 186 186 182 187 180 184 180 180 186 198 196 194 189 188 187 187 188 181 202
228 235 236 234 228 230 243 243 225 219 221 220 223 218 212 207 205 199 196 195 188 187 188 186 186 185 189 183 180 175 171 182 185 189 187 192 190 191 197 196 203 195 206 194 198 200 201 200 201
227 230 244 242 239 234 226 251 220 212 217 223 222 217 209 205 204 201 196 193 191 189 187 184 183 185 186 186 189 187 189 192 193 192 187 190 195 194 194 195 194 202 214 198 209 204 212 215 214
240 240 241 243 245 254 234 251 231 203 223 225 218 211 205 205 203 197 192 187 188 187 184 183 181 183 185 191 192 195 198 194 187 185 179 192 189 192 194 192 194 200 211 210 219 203 223 223 232
233 229 232 237 241 243 237 243 244 214 225 225 213 205 203 204 198 190 182 177 180 184 183 181 182 183 185 190 193 196 197 194 188 185 184 195 194 192 191 193 197 205 213 212 215 214 216 229 244
216 223 224 224 225 237 212 235 243 231 239 236 228 212 205 203 194 183 178 176 178 182 182 182 182 184 185 189 194 196 197 195 196 196 194 198 198 195 194 200 202 210 211 212 212 208 217 215 224
215 227 238 245 243 236 205 234 222 203 232 245 231 204 198 198 193 186 176 173 173 177 179 178 179 184 187 190 194 198 200 201 202 203 203 200 206 202 195 200 204 209 208 210 209 214 209 209 218
217 227 246 260 260 256 234 233 217 217 224 226 211 187 182 183 184 182 173 170 170 171 173 177 176 179 186 192 193 197 199 206 204 197 203 205 210 205 198 200 203 206 206 208 210 217 213 212 220
236 231 231 241 248 249 240 234 231 204 216 220 215 202 169 159 156 157 161 161 159 162 166 171 172 176 181 189 193 193 194 200 201 198 198 204 207 206 204 205 207 205 202 205 213 213 213 213 219
209 217 229 240 249 257 256 239 124 188 204 204 189 144 134 141 142 143 143 148 147 151 155 163 169 173 180 184 186 188 188 194 196 197 200 200 203 200 209 213 212 208 208 209 213 219 212 215 220
229 227 226 235 240 250 263 256 93 123 147 174 159 120 103 111 126 132 136 146 151 153 154 161 171 176 179 181 180 182 189 192 193 197 200 199 199 202 205 213 214 210 209 210 212 215 215 215 217
Height
1504 1504 1505 1506 1498 1488 1491 1489 1488 1489 1492 1495 1497 1496 1496 1497 1500 1509 1512 1511 1513 1514 1514 1514 1514 1515 1516 1517 1517 1518 1519 1520 1521 1521 1522 1523 1523 1523 1524 1524 1524 1525 1525 1526 1527 1528 1528 1529 1530
1506 1505 1507 1503 1490 1494 1494 1489 1491 1492 1496 1498 1499 1499 1499 1502 1506 1509 1511 1512 1513 1515 1515 1515 1515 1516 1517 1517 1518 1519 1520 1521 1522 1523 1523 1524 1524 1525 1525 1525 1526 1526 1527 1528 1528 1529 1530 1531 1532
1506 1506 1506 1493 1489 1492 1494 1491 1492 1495 1498 1499 1499 1501 1502 1506 1509 1511 1512 1512 1515 1516 1517 1515 1516 1517 1518 1518 1519 1520 1521 1522 1523 1524 1525 1525 1526 1526 1526 1527 1527 1527 1528 1529 1530 1530 1531 1532 1533
1508 1507 1502 1492 1492 1490 1490 1492 1494 1496 1498 1499 1499 1502 1506 1510 1511 1512 1512 1514 1516 1517 1518 1517 1517 1518 1519 1519 1520 1522 1522 1523 1524 1525 1526 1526 1527 1527 1528 1528 1528 1529 1530 1530 1531 1531 1532 1533 1534
1508 1503 1493 1491 1491 1491 1492 1494 1495 1495 1497 1499 1500 1502 1507 1511 1511 1512 1513 1515 1517 1518 1519 1518 1518 1519 1520 1521 1522 1523 1524 1525 1525 1526 1527 1527 1528 1528 1529 1529 1530 1530 1531 1531 1532 1533 1533 1533 1535
1505 1497 1493 1493 1492 1492 1493 1495 1496 1495 1497 1500 1501 1502 1508 1511 1512 1513 1514 1516 1518 1519 1520 1519 1519 1520 1521 1522 1523 1524 1525 1526 1527 1527 1528 1528 1529 1529 1530 1530 1531 1531 1532 1532 1533 1534 1534 1534 1535
1503 1494 1491 1489 1491 1492 1494 1496 1495 1495 1497 1500 1501 1502 1508 1511 1512 1514 1515 1517 1519 1520 1521 1521 1521 1521 1522 1523 1524 1525 1526 1527 1527 1528 1528 1529 1529 1530 1530 1531 1532 1532 1533 1533 1534 1535 1536 1536 1537
1502 1495 1491 1490 1492 1492 1495 1497 1497 1497 1498 1502 1503 1502 1506 1511 1512 1514 1516 1518 1519 1520 1521 1522 1523 1523 1524 1524 1525 1525 1526 1527 1528 1529 1529 1530 1530 1531 1531 1532 1533 1533 1533 1534 1535 1536 1536 1537 1538
1503 1496 1491 1489 1491 1491 1495 1496 1498 1500 1501 1503 1504 1505 1507 1509 1511 1514 1516 1517 1519 1520 1521 1522 1523 1524 1525 1526 1525 1526 1527 1528 1528 1529 1530 1530 1531 1532 1533 1533 1533 1534 1534 1535 1535 1536 1537 1538 1538
1499 1492 1489 1488 1490 1492 1495 1496 1498 1498 1499 1501 1504 1506 1507 1508 1511 1513 1515 1516 1518 1519 1521 1522 1523 1524 1525 1526 1526 1527 1528 1528 1529 1530 1530 1531 1532 1532 1533 1532 1533 1534 1535 1536 1536 1537 1537 1538 1540
1495 1491 1489 1492 1494 1495 1495 1496 1497 1497 1496 1498 1501 1505 1506 1508 1510 1512 1514 1516 1517 1519 1520 1522 1523 1524 1525 1526 1527 1527 1528 1528 1529 1530 1530 1531 1531 1531 1533 1534 1534 1535 1536 1537 1537 1537 1538 1539 1540
1494 1492 1493 1493 1495 1496 1495 1496 1496 1497 1497 1499 1501 1503 1505 1507 1509 1511 1513 1515 1517 1518 1519 1521 1522 1523 1524 1525 1526 1527 1528 1528 1529 1529 1530 1531 1531 1532 1533 1534 1535 1536 1536 1537 1537 1538 1538 1539 1540
1493 1492 1494 1495 1495 1495 1496 1496 1496 1497 1498 1499 1500 1502 1504 1506 1509 1511 1513 1515 1516 1517 1518 1520 1521 1522 1523 1524 1525 1527 1527 1528 1529 1529 1529 1530 1532 1532 1533 1533 1534 1536 1536 1537 1537 1538 1538 1539 1540
1490 1491 1492 1493 1493 1494 1494 1493 1494 1494 1496 1498 1499 1501 1503 1505 1507 1509 1511 1513 1514 1516 1517 1519 1520 1521 1522 1523 1524 1526 1527 1528 1529 1529 1530 1530 1532 1532 1533 1534 1534 1535 1536 1536 1537 1537 1538 1539 1540
1493 1491 1489 1489 1490 1491 1492 1491 1490 1492 1495 1496 1498 1500 1502 1504 1506 1508 1509 1511 1513 1514 1516 1517 1518 1520 1521 1522 1524 1525 1526 1527 1528 1529 1529 1530 1531 1531 1533 1534 1534 1535 1536 1536 1536 1537 1538 1539 1539
1489 1488 1487 1483 1486 1488 1491 1488 1485 1490 1493 1494 1496 1498 1500 1502 1504 1506 1508 1510 1511 1513 1514 1515 1517 1518 1519 1521 1523 1524 1525 1527 1527 1528 1529 1529 1530 1531 1532 1534 1534 1535 1535 1536 1536 1537 1538 1539 1539
1485 1484 1482 1481 1483 1484 1486 1484 1484 1488 1490 1491 1494 1496 1498 1500 1502 1504 1506 1507 1509 1511 1512 1514 1516 1517 1518 1520 1521 1523 1524 1525 1526 1527 1528 1529 1530 1531 1531 1533 1533 1534 1535 1535 1536 1537 1537 1538 1538
1481 1479 1480 1480 1480 1482 1482 1481 1482 1485 1487 1489 1491 1493 1495 1497 1499 1502 1503 1505 1507 1508 1510 1512 1514 1515 1517 1518 1520 1521 1523 1524 1525 1526 1527 1528 1529 1530 1531 1532 1532 1534 1534 1535 1535 1536 1536 1537 1538
1476 1478 1479 1478 1478 1481 1480 1479 1479 1482 1484 1486 1488 1490 1492 1494 1497 1499 1501 1503 1504 1506 1508 1510 1512 1513 1515 1516 1518 1519 1521 1522 1524 1525 1525 1526 1528 1529 1530 1531 1531 1532 1533 1533 1534 1535 1536 1537 1537
1480 1481 1479 1478 1479 1481 1479 1478 1476 1479 1481 1483 1485 1487 1489 1492 1494 1496 1498 1500 1501 1503 1505 1507 1509 1511 1513 1515 1516 1518 1519 1521 1522 1523 1524 1525 1526 1527 1528 1529 1530 1531 1531 1532 1533 1534 1535 1536 1536
1480 1479 1476 1477 1478 1478 1480 1478 1474 1475 1478 1481 1483 1484 1487 1489 1491 1493 1495 1497 1499 1500 1502 1504 1506 1508 1511 1513 1515 1516 1518 1519 1521 1521 1522 1523 1524 1525 1526 1527 1528 1529 1530 1531 1531 1532 1533 1534 1535
1479 1474 1475 1477 1480 1476 1478 1481 1471 1470 1474 1477 1479 1481 1483 1486 1488 1490 1492 1494 1496 1498 1500 1501 1503 1506 1508 1510 1512 1514 1515 1517 1518 1519 1521 1522 1523 1523 1524 1525 1526 1526 1528 1528 1529 1530 1531 1532 1533
1473 1472 1474 1475 1476 1477 1474 1479 1467 1467 1472 1473 1475 1478 1480 1483 1485 1487 1489 1491 1494 1496 1498 1499 1501 1503 1505 1508 1510 1511 1513 1515 1516 1518 1519 1520 1521 1521 1522 1523 1524 1525 1526 1527 1527 1528 1529 1530 1531
1472 1474 1474 1473 1472 1483 1473 1476 1471 1463 1466 1468 1472 1476 1478 1481 1483 1485 1487 1489 1491 1494 1496 1497 1498 1500 1502 1505 1507 1508 1510 1512 1514 1515 1516 1518 1519 1519 1520 1521 1522 1523 1524 1524 1525 1526 1527 1527 1528
1473 1477 1481 1481 1479 1475 1466 1472 1468 1462 1465 1467 1470 1474 1477 1479 1481 1483 1485 1487 1489 1491 1493 1495 1496 1498 1500 1502 1504 1506 1507 1509 1511 1512 1514 1515 1517 1517 1518 1519 1519 1521 1521 1522 1523 1523 1525 1525 1526
1468 1469 1477 1482 1477 1467 1467 1469 1463 1463 1467 1469 1471 1473 1476 1477 1479 1481 1483 1485 1487 1489 1491 1492 1494 1495 1497 1499 1501 1503 1505 1507 1509 1510 1512 1513 1514 1515 1516 1516 1517 1518 1519 1520 1520 1521 1522 1523 1523
1466 1465 1460 1467 1467 1470 1464 1462 1462 1463 1466 1469 1470 1472 1474 1476 1478 1480 1482 1484 1486 1487 1489 1491 1492 1493 1495 1497 1499 1501 1502 1504 1506 1507 1509 1511 1512 1513 1513 1514 1514 1515 1516 1517 1517 1519 1519 1520 1520
1461 1461 1465 1469 1478 1477 1468 1465 1462 1463 1465 1467 1469 1471 1473 1475 1476 1478 1480 1482 1484 1486 1487 1489 1490 1492 1493 1495 1497 1498 1499 1501 1503 1505 1506 1508 1509 1510 1511 1511 1512 1513 1513 1514 1515 1516 1517 1517 1517
1463 1465 1464 1463 1463 1471 1473 1465 1455 1461 1464 1466 1468 1471 1472 1474 1476 1478 1479 1481 1483 1485 1486 1487 1489 1490 1491 1493 1494 1496 1497 1499 1500 1502 1503 1505 1506 1507 1508 1509 1510 1510 1511 1511 1512 1513 1514 1514 1515
1459 1460 1463 1470 1469 1466 1466 1466 1459 1462 1465 1467 1469 1472 1473 1475 1476 1477 1479 1481 1482 1484 1485 1486 1487 1489 1490 1491 1492 1493 1495 1497 1498 1499 1501 1502 1503 1504 1505 1506 1507 1508 1508 1509 1510 1510 1511 1512 1512